Other Public Products
Issued by NWS Grand Forks, ND

Home | Current Version | Previous Version | Graphics & Text | Print | Product List | Glossary On
Versions: 1 2 3 4 5 6 7 8 9 10 11 12 13 14 15 16 17 18 19 20 21 22 23 24 25 26 27 28 29 30 31 32 33 34 35 36 37 38 39 40 41 42 43 44 45 46 47 48 49 50
000
FPUS83 KFGF 131831
OPUFGF
PRAIRIE TO PINES WEATHER ROUNDUP
NATIONAL WEATHER SERVICE EASTERN NORTH DAKOTA/GRAND FORKS ND
1200 PM CST WED DEC 13 2017

 **SATELLITE DATA USED TO AUGMENT SKY COVER AT AUTOMATED STATIONS**
 *****  WEATHER ACROSS EASTERN NORTH DAKOTA  *****

CITY           SKY/WX    TMP DP  RH WIND       PRES   REMARKS
GRAND FORKS    CLOUDY    26  24  92 N28G37    29.80R WCI  10
6HR MIN TEMP:  26; 6HR MAX TEMP:  28; 6HR PCP: TRACE;

GRND FORKS AFB CLOUDY    26  25  95 N18       29.80R WCI  13
GRND FORKS NWS   N/A     27 N/A N/A N23         N/A  WCI  12
BUXTON           N/A     26  25  95 N21         N/A  WCI  12
DEVILS LAKE    CLOUDY    30  28  93 NW17      29.83S WCI  18
6HR MIN TEMP:  30; 6HR MAX TEMP:  34; 6HR PCP: TRACE;

FARGO          CLOUDY    28  26  92 N20G26    29.78S WCI  15
6HR MIN TEMP:  28; 6HR MAX TEMP:  31; 6HR PCP: TRACE;

WAHPETON ARPT  CLOUDY    30  25  80 N15G21    29.78R WCI  19
$$

 *****  WEATHER ACROSS CENTRAL AND WESTERN NORTH DAKOTA  *****

CITY           SKY/WX    TMP DP  RH WIND       PRES   REMARKS
JAMESTOWN      CLOUDY    32  29  88 N16       29.81S WCI  21
6HR MIN TEMP:  32; 6HR MAX TEMP:  35;

BISMARCK       CLOUDY    36  26  67 NW23G30   29.94S
6HR MIN TEMP:  34; 6HR MAX TEMP:  37;

MINOT          CLOUDY    36  27  69 NW20G30   29.92S
6HR MIN TEMP:  33; 6HR MAX TEMP:  36;

MINOT AFB      CLOUDY    35  27  71 NW23      29.91S WCI  23
6HR MIN TEMP:  32; 6HR MAX TEMP:  35;

GARRISON         N/A     34  26  72 NW22G36   29.93S WCI  22
6HR MIN TEMP:  32; 6HR MAX TEMP:  34;

WILLISTON      FAIR      39  26  59 NW22G31   30.04R
6HR MIN TEMP:  33; 6HR MAX TEMP:  39;

DICKINSON      FAIR      36  25  64 NW21G32   29.97F
6HR MIN TEMP:  31; 6HR MAX TEMP:  36;

HETTINGER      FAIR      39  25  57 NW26G35   30.00S
6HR MIN TEMP:  31; 6HR MAX TEMP:  39;

$$

 *****  OTHER OBSERVATIONS NORTHEAST NORTH DAKOTA  *****

CITY           SKY/WX    TMP DP  RH WIND       PRES   REMARKS
WALHALLA       FAIR      23  23 100 N22       29.85R WCI   8
LANGDON        CLOUDY    27  27 100 N25G33    29.80S WCI  11
CAVALIER       CLOUDY    23  18  80 N20G31    29.83R WCI   8
GRAFTON        CLOUDY    25  21  86 N24G33    29.83S WCI   9
CANDO          CLOUDY    32  32 100 N14       29.85F WCI  22
FORT TOTTEN      N/A     32  28  85 NW8       29.95S WCI  25
ROLLA          CLOUDY    30  28  93 N21       29.83F WCI  17
RUGBY          CLOUDY    34  25  69 NW22G32   29.86S WCI  22
 ***** THE ABOVE OBSERVATIONS ARE NON NWS ARE NOT QUALITY
        CONTROLLED AND MAY MIS-REPORT RAIN FOR SNOW...
$$

 *****  OTHER OBSERVATIONS SOUTHEAST NORTH DAKOTA *****

CITY           SKY/WX    TMP DP  RH WIND       PRES   REMARKS
COOPERSTOWN    CLOUDY    32  28  86 NW21G33   29.80S WCI  20
VALLEY CITY    FLURRIES  30  30 100 N22G29    29.81S WCI  17
OAKES            N/A     32  32 100 N17       29.83R WCI  21
GWINNER          N/A     32  27  80 N17G24    29.81R WCI  21
SHEYENNE NWR     N/A     33  25  73 N15       29.95  WCI  23
BUFFALO          N/A     32  22  66 W25G37      N/A  WCI  19
WYNDMERE       NOT AVBL
 ***** THE ABOVE OBSERVATIONS ARE NON NWS ARE NOT QUALITY
       CONTROLLED AND MAY MIS-REPORT RAIN FOR SNOW...
$$

  *****  WEATHER ACROSS NORTHERN MINNESOTA  *****

CITY           SKY/WX    TMP DP  RH WIND       PRES   REMARKS
FLAG ISLAND    LGT SNOW  12   9  85 N10       29.77S WCI  -1
WARROAD        LGT SNOW  16  12  86 N9        29.78R WCI   4
ROSEAU         LGT SNOW  18  12  79 N9        29.78R WCI   6
HALLOCK        LGT SNOW  21  18  86 N17       29.81S WCI   7
THF RVR FALLS  MIX PCPN  19  17  92 N15       29.76R FOG     WCI   5
6HR MIN TEMP:  19; 6HR MAX TEMP:  22; 6HR PCP: TRACE;

HALSTAD        NOT AVBL
FOSSTON        LGT SNOW  18  16  93 N16       29.74R WCI   3
BAUDETTE       LGT SNOW  16  11  80 N10       29.75R WCI   4
6HR MIN TEMP:  14; 6HR MAX TEMP:  16; 6HR PCP: TRACE;

WASKISH        FLURRIES  18  12  79 NW8       29.73R WCI   7
CROOKSTON      CLOUDY    23  19  86 N21       29.79S WCI   8
$$
  *****  WEATHER ACROSS CENTRAL AND WEST MINNESOTA  *****

CITY           SKY/WX    TMP DP  RH WIND       PRES   REMARKS
BEMIDJI        FLURRIES  16  13  87 N15       29.71R WCI   1
6HR MIN TEMP:  16; 6HR MAX TEMP:  21;

PARK RAPIDS    CLOUDY    19  16  88 N16       29.67R WCI   4
6HR MIN TEMP:  19; 6HR MAX TEMP:  27;

WADENA         CLOUDY    21  19  93 N16G23    29.67R WCI   7
DETROIT LAKES  CLOUDY    23  21  93 N24G31    29.72S FOG     WCI   7
MOORHEAD       CLOUDY    27  23  86 N24G32    29.78S WCI  12
FERGUS FALLS   CLOUDY    25  23  93 N25G35    29.77R WCI   9
ELBOW LAKE     CLOUDY    26  23  88 N23G30    29.73R FOG     WCI  11
6HR MIN TEMP:  26; 6HR MAX TEMP:  32;

MORRIS MN      CLOUDY    28  25  86 NW31G39   29.73R WCI  12
STAPLES        CLOUDY    19  18  93 NW14G21   29.67R WCI   6
WHEATON        CLOUDY    30  25  80 NW20      29.79R WCI  18
$$
  *****  WEATHER ELSEWHERE ACROSS MINNESOTA  *****

CITY           SKY/WX    TMP DP  RH WIND       PRES   REMARKS
DULUTH         LGT SNOW  21  18  88 NE14G26   29.56R FOG     WCI   8
6HR MIN TEMP:  18; 6HR MAX TEMP:  22; 6HR PCP:  0.05;

INTRNTL FALLS  LGT SNOW  17  11  77 VRB6      29.72R WCI   9
6HR MIN TEMP:  15; 6HR MAX TEMP:  17; 6HR PCP:  0.05;

ELY            CLOUDY    18  12  79 NE9       29.63R FOG     WCI   6
CLOQUET        LGT SNOW  23  18  80 N10       29.58R WCI  12
BRAINERD       CLOUDY    20  15  81 N15G25    29.66R WCI   6
6HR MIN TEMP:  20; 6HR MAX TEMP:  22;

HIBBING        LGT SNOW  20  14  77 N10       29.62R WCI   9
6HR MIN TEMP:  16; 6HR MAX TEMP:  20; 6HR PCP:  0.02;

ALEXANDRIA     CLOUDY    25  20  81 NW25G36   29.68R WCI   9
6HR MIN TEMP:  25; 6HR MAX TEMP:  34;

SAINT CLOUD    CLOUDY    23  19  85 N13G24    29.62R WCI  11
6HR MIN TEMP:  23; 6HR MAX TEMP:  28; 6HR PCP:  0.04;

MINNEAPOLIS    CLOUDY    25  19  78 N21G33    29.57R WCI  11
6HR MIN TEMP:  25; 6HR MAX TEMP:  30; 6HR PCP:  0.01;

$$

  *****  WEATHER ACROSS SOUTH DAKOTA  *****

CITY           SKY/WX    TMP DP  RH WIND       PRES   REMARKS
SIOUX FALLS    CLOUDY    39  31  72 NW22G37   29.78R
6HR MIN TEMP:  39; 6HR MAX TEMP:  45; 6HR PCP: TRACE;

BROOKINGS      CLOUDY    36  28  73 NW22G32   29.76R
WATERTOWN      CLOUDY    33  29  85 N24G32    29.78R WCI  20
6HR MIN TEMP:  33; 6HR MAX TEMP:  36;

HURON          CLOUDY    39  30  70 NW23G31   29.85R
6HR MIN TEMP:  38; 6HR MAX TEMP:  43;

SISSETON         N/A     34  28  79 N24       29.77R WCI  21
ABERDEEN       CLOUDY    38  29  70 NW25G31   29.85S
6HR MIN TEMP:  37; 6HR MAX TEMP:  38;

MITCHELL       CLOUDY    41  30  65 NW23G33   29.86F
PIERRE         FAIR      44  30  57 NW28G35   29.92F
6HR MIN TEMP:  39; 6HR MAX TEMP:  44;

MOBRIDGE       CLOUDY    40  29  64 NW20G33   29.90R
RAPID CITY     FAIR      44  21  40 NW32G40   30.03F
6HR MIN TEMP:  40; 6HR MAX TEMP:  45;

$$

  *****  SOME WEATHER IN NEARBY STATES *****

CITY           SKY/WX    TMP DP  RH WIND       PRES   REMARKS
GLASGOW MT     FAIR      36  26  67 NW16      30.13S
6HR MIN TEMP:  29; 6HR MAX TEMP:  36;

GREAT FALLS MT CLOUDY    33  17  51 SW10      30.27R WCI  25
6HR MIN TEMP:  23; 6HR MAX TEMP:  33;

CHEYENNE WY    FAIR      44  10  25 N14G22    30.13F
6HR MIN TEMP:  33; 6HR MAX TEMP:  44;

SCOTTSBLUFF NE FAIR      49  15  25 NW24G37   30.11F
6HR MIN TEMP:  33; 6HR MAX TEMP:  49;

OMAHA NE       FAIR      52  29  41 NW25G37   29.75R
6HR MIN TEMP:  47; 6HR MAX TEMP:  52;

DES MOINES IA  CLOUDY    43  34  70 NW25G47   29.61R
6HR MIN TEMP:  39; 6HR MAX TEMP:  49; 6HR PCP:  0.02;

DAVENPORT IA   PTSUNNY   44  29  55 W30G45    29.38S
6HR MIN TEMP:  31; 6HR MAX TEMP:  45;

CHICAGO IL     CLOUDY    35  22  58 SW16      29.31F
6HR MIN TEMP:  25; 6HR MAX TEMP:  35;

EAU CLAIRE WI  CLOUDY    22  16  78 N10       29.47R WCI  11
6HR MIN TEMP:  20; 6HR MAX TEMP:  22; 6HR PCP:  0.02;

LA CROSSE WI   CLOUDY    28  21  75 NW20G29   29.42R WCI  15
6HR MIN TEMP:  29; 6HR MAX TEMP:  32;

$$

  *****  SOME NATIONAL WEATHER *****

CITY           SKY/WX    TMP DP  RH WIND       PRES   REM


USA.gov is the U.S. government's official web portal to all federal, state and local government web resources and services.